WGS F3 (USA 211)

Last updated on Sun Apr 12 2026 00:02:52 GMT+0000 (Coordinated Universal Time)

1 36108U 09068A 26101.13842880 .00000066 00000+0 00000+0 0 9995 2 36108 0.3973 85.5283 0000608 339.0601 54.6226 1.00271402 45921
UTC large
Height (km)
Speed (km/s)
/
Latitude / Longitude
Inclination (degrees)
Orbital Period (minutes)
Azimuth
Elevation
Range (km)
Doppler Factor

Next 0 passes for location: London (51.5072 / 0.1276)

Sorry there are no passes over London.
WGS F3 (USA 211)